When you browse on this site, cookies collect data to enhance your experience and personalize the content and advertising you see.
Visit our Privacy Policy to learn more. By continuing to use the site, you agree to this use of cookies and data.
  • Em Portugal
  • Lista de países
  • Para 7 dias
  • Temperatura da água
  • Mapas de satélite
  • Mapa do tempo
  • Widgets de tempo
  • user-avatar
    Iniciar Sessão

    Previsão horária em Kornilovo

    Hoje, 18 Fevereiro, Segunda-feira

    Tempo Temperatura Precipitação Vento Pressão Humidade
    00:00 -5°C° 0 mm 4 m/s 744 mmHg 82%
    01:00 -7°C° 0 mm 4 m/s 745 mmHg 84%
    02:00 -6°C° 0 mm 3 m/s 745 mmHg 85%
    03:00 -6°C° 0 mm 3 m/s 746 mmHg 87%
    04:00 -7°C° 0 mm 3 m/s 746 mmHg 88%
    05:00 -7°C° 0 mm 3 m/s 747 mmHg 89%
    06:00 -7°C° 0 mm 3 m/s 747 mmHg 89%
    07:00 -7°C° 0 mm 3 m/s 748 mmHg 90%
    08:00 -6°C° 0 mm 2 m/s 749 mmHg 90%
    09:00 -6°C° 0 mm 2 m/s 749 mmHg 87%
    10:00 -5°C° 0 mm 2 m/s 749 mmHg 83%
    11:00 -4°C° 0 mm 2 m/s 750 mmHg 80%
    12:00 -4°C° 0 mm 2 m/s 750 mmHg 77%
    13:00 -3°C° 0 mm 2 m/s 750 mmHg 75%
    14:00 -1°C° 0 mm 1 m/s 750 mmHg 72%
    15:00 -1°C° 0 mm 1 m/s 750 mmHg 76%
    16:00 -2°C° 0 mm 1 m/s 750 mmHg 80%
    17:00 -3°C° 0 mm 1 m/s 750 mmHg 84%
    18:00 -4°C° 0 mm 1 m/s 750 mmHg 85%
    19:00 -4°C° 0 mm 1 m/s 750 mmHg 86%
    20:00 -4°C° 0 mm 1 m/s 750 mmHg 86%
    21:00 -6°C° 0 mm 2 m/s 749 mmHg 86%
    22:00 -6°C° 0 mm 2 m/s 749 mmHg 86%
    23:00 -6°C° 0 mm 2 m/s 749 mmHg 86%

    Amanhã, 19 Fevereiro, Terça-feira

    Tempo Temperatura Precipitação Vento Pressão Humidade
    00:00 -7°C° 0 mm 3 m/s 749 mmHg 85%
    01:00 -7°C° 0 mm 3 m/s 748 mmHg 83%
    02:00 -6°C° 0 mm 3 m/s 748 mmHg 82%
    03:00 -7°C° 0 mm 4 m/s 747 mmHg 80%
    04:00 -7°C° 0 mm 4 m/s 747 mmHg 79%
    05:00 -7°C° 0 mm 4 m/s 746 mmHg 78%
    06:00 -7°C° 0 mm 4 m/s 746 mmHg 78%
    07:00 -5°C° 0 mm 4 m/s 745 mmHg 79%
    08:00 -6°C° 0 mm 5 m/s 745 mmHg 79%
    09:00 -5°C° 0 mm 5 m/s 744 mmHg 78%
    10:00 -4°C° 0 mm 5 m/s 744 mmHg 78%
    11:00 -1°C° 0 mm 5 m/s 743 mmHg 77%
    12:00 -1°C° 0 mm 5 m/s 743 mmHg 77%
    13:00 -1°C° 0 mm 5 m/s 742 mmHg 78%
    14:00 0°C° 0 mm 5 m/s 742 mmHg 78%
    15:00 -1°C° 0 mm 5 m/s 741 mmHg 80%
    16:00 -1°C° 0 mm 5 m/s 740 mmHg 83%
    17:00 -2°C° 0 mm 5 m/s 740 mmHg 85%
    18:00 -2°C° 0 mm 5 m/s 739 mmHg 86%
    19:00 -2°C° 0 mm 5 m/s 739 mmHg 87%
    20:00 -2°C° 0 mm 5 m/s 738 mmHg 89%
    21:00 -2°C° 0 mm 5 m/s 738 mmHg 89%
    22:00 -1°C° 0 mm 5 m/s 737 mmHg 90%
    23:00 -1°C° 0 mm 5 m/s 736 mmHg 91%

    Depois de amanhã, 20 Fevereiro, Quarta-feira

    Tempo Temperatura Precipitação Vento Pressão Humidade
    00:00 -1°C° 0 mm 5 m/s 735 mmHg 91%
    01:00 0°C° 0 mm 5 m/s 735 mmHg 91%
    02:00 0°C° 0 mm 5 m/s 734 mmHg 91%
    03:00 0°C° 0.3 mm 5 m/s 734 mmHg 92%
    04:00 0°C° 0.3 mm 5 m/s 734 mmHg 92%
    05:00 0°C° 0.3 mm 5 m/s 733 mmHg 92%
    06:00 0°C° 0.1 mm 5 m/s 733 mmHg 92%
    07:00 0°C° 0.1 mm 5 m/s 733 mmHg 93%
    08:00 0°C° 0.1 mm 5 m/s 733 mmHg 93%
    09:00 0°C° 0.2 mm 5 m/s 733 mmHg 91%
    10:00 0°C° 0.2 mm 5 m/s 733 mmHg 90%
    11:00 0°C° 0.2 mm 5 m/s 733 mmHg 88%
    12:00 0°C° 0.1 mm 5 m/s 733 mmHg 87%
    13:00 0°C° 0.1 mm 5 m/s 733 mmHg 86%
    14:00 +1°C° 0.1 mm 5 m/s 732 mmHg 85%
    15:00 0°C° 0.3 mm 5 m/s 732 mmHg 85%
    16:00 0°C° 0.3 mm 5 m/s 732 mmHg 86%
    17:00 0°C° 0.3 mm 5 m/s 732 mmHg 86%
    18:00 -1°C° 0.4 mm 5 m/s 732 mmHg 82%
    19:00 -2°C° 0.4 mm 6 m/s 732 mmHg 79%
    20:00 -2°C° 0.4 mm 6 m/s 732 mmHg 76%
    21:00 -4°C° 0 mm 6 m/s 732 mmHg 77%
    22:00 -5°C° 0 mm 5 m/s 732 mmHg 79%
    23:00 -6°C° 0 mm 5 m/s 732 mmHg 81%

    21 Fevereiro, Quinta-feira

    Tempo Temperatura Precipitação Vento Pressão Humidade
    00:00 -6°C° 0.3 mm 5 m/s 732 mmHg 82%
    01:00 -6°C° 0.3 mm 6 m/s 733 mmHg 83%
    02:00 -5°C° 0.3 mm 6 m/s 733 mmHg 84%
    03:00 -5°C° 0.2 mm 6 m/s 733 mmHg 83%
    04:00 -6°C° 0.2 mm 6 m/s 733 mmHg 81%
    05:00 -6°C° 0.2 mm 6 m/s 733 mmHg 80%
    06:00 -7°C° 0.1 mm 7 m/s 734 mmHg 79%
    07:00 -7°C° 0.1 mm 7 m/s 735 mmHg 77%
    08:00 -8°C° 0.1 mm 7 m/s 735 mmHg 76%
    09:00 -8°C° 0.1 mm 7 m/s 736 mmHg 75%
    10:00 -8°C° 0.1 mm 7 m/s 737 mmHg 75%
    11:00 -8°C° 0.1 mm 7 m/s 737 mmHg 74%
    12:00 -8°C° 0.1 mm 7 m/s 738 mmHg 73%
    13:00 -8°C° 0.1 mm 7 m/s 739 mmHg 72%
    14:00 -8°C° 0.1 mm 7 m/s 740 mmHg 71%
    15:00 -9°C° 0.1 mm 7 m/s 741 mmHg 72%
    16:00 -9°C° 0.1 mm 6 m/s 741 mmHg 73%
    17:00 -9°C° 0.1 mm 6 m/s 742 mmHg 74%
    18:00 -10°C° 0 mm 6 m/s 743 mmHg 74%
    19:00 -11°C° 0 mm 6 m/s 744 mmHg 74%
    20:00 -11°C° 0 mm 5 m/s 745 mmHg 74%
    21:00 -12°C° 0 mm 5 m/s 746 mmHg 74%
    22:00 -12°C° 0 mm 5 m/s 747 mmHg 74%
    23:00 -12°C° 0 mm 5 m/s 748 mmHg 75%

    22 Fevereiro, Sexta-feira

    Tempo Temperatura Precipitação Vento Pressão Humidade
    00:00 -13°C° 0 mm 5 m/s 748 mmHg 75%
    01:00 -13°C° 0 mm 5 m/s 749 mmHg 75%
    02:00 -13°C° 0 mm 5 m/s 750 mmHg 75%
    03:00 -14°C° 0 mm 5 m/s 750 mmHg 76%
    04:00 -14°C° 0 mm 5 m/s 751 mmHg 76%
    05:00 -14°C° 0 mm 5 m/s 752 mmHg 77%
    06:00 -14°C° 0 mm 5 m/s 752 mmHg 76%
    07:00 -14°C° 0 mm 5 m/s 753 mmHg 75%
    08:00 -14°C° 0 mm 5 m/s 754 mmHg 74%
    09:00 -13°C° 0 mm 5 m/s 754 mmHg 72%
    10:00 -12°C° 0 mm 5 m/s 755 mmHg 69%
    11:00 -11°C° 0 mm 6 m/s 755 mmHg 66%
    12:00 -11°C° 0 mm 6 m/s 756 mmHg 65%
    13:00 -10°C° 0 mm 6 m/s 756 mmHg 64%
    14:00 -10°C° 0 mm 6 m/s 756 mmHg 63%
    15:00 -10°C° 0 mm 5 m/s 757 mmHg 67%
    16:00 -11°C° 0 mm 5 m/s 757 mmHg 70%
    17:00 -11°C° 0 mm 4 m/s 758 mmHg 74%
    18:00 -11°C° 0 mm 4 m/s 758 mmHg 76%
    19:00 -11°C° 0 mm 4 m/s 759 mmHg 78%
    20:00 -11°C° 0 mm 4 m/s 759 mmHg 80%
    21:00 -12°C° 0 mm 4 m/s 759 mmHg 82%
    22:00 -12°C° 0 mm 3 m/s 760 mmHg 84%
    23:00 -12°C° 0 mm 3 m/s 760 mmHg 87%

    23 Fevereiro, Sábado

    Tempo Temperatura Precipitação Vento Pressão Humidade
    00:00 -10°C° 0 mm 2 m/s 760 mmHg 88%
    01:00 -12°C° 0 mm 2 m/s 760 mmHg 90%
    02:00 -10°C° 0 mm 1 m/s 760 mmHg 91%
    03:00 -10°C° 0 mm 1 m/s 760 mmHg 89%
    04:00 -9°C° 0 mm 1 m/s 760 mmHg 87%
    05:00 -9°C° 0 mm 1 m/s 759 mmHg 85%
    06:00 -9°C° 0 mm 2 m/s 759 mmHg 80%
    07:00 -9°C° 0 mm 2 m/s 759 mmHg 76%
    08:00 -9°C° 0 mm 3 m/s 758 mmHg 71%
    09:00 -9°C° 0.1 mm 3 m/s 758 mmHg 72%
    10:00 -9°C° 0.1 mm 4 m/s 757 mmHg 73%
    11:00 -9°C° 0.1 mm 4 m/s 757 mmHg 74%
    12:00 -9°C° 0.4 mm 4 m/s 756 mmHg 79%
    13:00 -8°C° 0.4 mm 4 m/s 755 mmHg 85%
    14:00 -8°C° 0.4 mm 4 m/s 755 mmHg 90%
    15:00 -8°C° 0.3 mm 4 m/s 754 mmHg 90%
    16:00 -8°C° 0.3 mm 4 m/s 754 mmHg 90%
    17:00 -8°C° 0.3 mm 4 m/s 754 mmHg 89%
    18:00 -7°C° 0.1 mm 4 m/s 754 mmHg 90%
    19:00 -6°C° 0.1 mm 3 m/s 753 mmHg 91%
    20:00 -6°C° 0.1 mm 3 m/s 753 mmHg 92%
    21:00 -6°C° 0 mm 3 m/s 753 mmHg 93%
    22:00 -6°C° 0 mm 3 m/s 753 mmHg 93%
    23:00 -5°C° 0 mm 3 m/s 752 mmHg 94%
    Mostrar mais